[[{"header":{"parameterUnit":"m.s-1","parameterCategory":1,"la1":30.2991,"la2":30.254,"lo1":-89.0895,"lo2":-89.0444,"dy":0.0017,"dx":0.0017,"nx":28,"ny":28,"refTime":"2025-09-01T03:00:00:Z","depth":0,"parameterNumber":2,"parameterNumberName":"U-component_of_WINDS"},"data":[0,0,0,0,0,0,0,0,0,0,0,0,0,0,0,0,0,0,0,0,0,0,0,0,0,0,0,0,0,0,0,0,0,0,0,0,0,0,0,0,0,0,0,0,0,0,0,0,0,0,0,0,0,0,0,0,0,0,-3.0774,-3.0775,0,-3.0825,-3.0826,-3.0826,-3.0779,-3.0777,-3.0775,-3.0773,-3.0826,-3.0829,-3.0832,0,0,0,0,0,0,0,0,0,0,0,0,0,-3.0637,-3.064,-3.0774,-3.0775,-3.0775,-3.0825,-3.0826,-3.0827,-3.0779,-3.0777,-3.0775,-3.0772,-3.0825,-3.0829,-3.0833,0,0,0,0,0,0,0,0,0,0,0,0,0,-3.0693,-3.0641,-3.0774,-3.0758,-3.0757,-3.0825,-3.0826,-3.0827,-3.078,-3.0777,-3.0774,-3.0771,-3.0824,-3.0828,-3.0833,-3.092,0,0,-3.0848,-3.085,0,0,0,0,0,0,0,0,-3.069,-3.0698,-3.076,-3.0759,-3.0758,-3.0793,-3.0797,-3.0858,-3.0781,-3.0771,-3.0773,-3.077,-3.0817,-3.0822,-3.0838,-3.0923,-3.0925,-3.0848,-3.0851,-3.0853,-3.0854,0,0,0,0,0,0,0,-3.0686,-3.0696,-3.0794,-3.076,-3.076,-3.0748,-3.0753,-3.0808,-3.081,-3.0772,-3.0768,-3.0775,-3.0816,-3.0834,-3.0839,-3.0926,-3.0848,-3.0852,-3.0855,-3.0857,-3.1085,-3.1088,0,0,0,0,0,0,-3.0684,-3.0693,-3.0793,-3.0796,-3.0716,-3.0753,-3.0759,-3.0785,-3.0809,-3.081,-3.0777,-3.0773,-3.0827,-3.0834,-3.0841,-3.0945,-3.0853,-3.0858,-3.086,-3.1082,-3.1086,-3.1089,0,0,0,0,0,0,-3.0681,-3.0693,-3.0791,-3.0744,-3.0755,-3.0759,-3.0788,-3.0787,-3.0804,-3.0813,-3.0813,-3.0795,-3.0825,-3.0834,-3.0901,-3.0946,-3.086,-3.0864,-3.1078,-3.1083,-3.1088,-3.1154,0,0,0,0,0,0,-3.0677,-3.0693,-3.0725,-3.0745,-3.0758,-3.085,-3.0791,-3.079,-3.0813,-3.0807,-3.083,-3.0831,-3.0824,-3.0894,-3.0906,-3.0951,-3.0868,-3.1074,-3.1081,-3.1086,-3.1148,-3.116,-3.1171,0,0,0,0,0,-3.0673,-3.0741,-3.0727,-3.0739,-3.0798,-3.0852,-3.086,-3.085,-3.0817,-3.085,-3.0856,-3.083,-3.094,-3.0901,-3.0914,-3.0962,-3.1071,-3.1079,-3.1086,-3.1142,-3.1158,-3.1171,0,0,0,0,0,0,-3.0727,-3.0744,-3.0728,-3.0805,-3.0828,-3.0844,-3.0885,-3.0866,-3.0899,-3.0892,-3.0879,-3.0885,-3.0956,-3.0965,-3.0922,-3.1048,-3.1,-3.101,-3.1039,-3.1054,-3.1065,-3.1061,-3.0872,0,0,0,0,0,-3.0748,-3.079,-3.0802,-3.0869,-3.0881,-3.0882,-3.0905,-3.0895,-3.0918,-3.0928,-3.0938,-3.0962,-3.1002,-3.1028,-3.1065,-3.1149,-3.1154,-3.1188,-3.12,-3.121,-3.1218,-3.1265,-3.1281,-3.1113,-3.1113,-3.1113,0,0,-3.0791,-3.0806,-3.0833,-3.088,-3.0897,-3.0941,-3.089,-3.0939,-3.0972,-3.0935,-3.0999,-3.1008,-3.1034,-3.111,-3.1144,-3.112,-3.1266,-3.1219,-3.1226,-3.123,-3.1274,-3.129,-3.1304,-3.1118,-3.1117,-3.1116,0,0,-3.0893,-3.0908,-3.0966,-3.0984,-3.101,-3.101,-3.1024,-3.1044,-3.1049,-3.1113,-3.1087,-3.1126,-3.1195,-3.1214,-3.1233,-3.1345,-3.1323,-3.1358,-3.1419,-3.1464,-3.1478,-3.1489,-3.153,-3.1545,-3.1367,-3.1367,-3.1367,0,-3.0944,-3.1009,-3.0998,-3.1049,-3.1071,-3.1041,-3.11,-3.1118,-3.1155,-3.1171,-3.1144,-3.1231,-3.1246,-3.1326,-3.1354,-3.137,-3.1387,-3.1355,-3.1477,-3.1488,-3.1499,-3.1537,-3.1553,-3.1371,-3.137,-3.137,-3.137,0,-3.1071,-3.1117,-3.116,-3.1197,-3.1224,-3.1279,-3.1277,-3.1306,-3.1295,-3.1298,-3.1365,-3.1382,-3.1423,-3.1441,-3.1431,-3.1522,-3.1506,-3.1478,-3.143,-3.1519,-3.1555,-3.157,-3.1377,-3.1375,-3.1374,-3.1373,0,0,-3.1206,-3.1238,-3.1254,-3.1271,-3.1298,-3.1334,-3.1388,-3.1428,-3.1454,-3.1481,-3.1526,-3.1586,-3.1561,-3.1583,-3.1574,-3.1614,-3.1703,-3.1582,-3.1582,-3.1604,-3.1805,-3.1826,-3.1843,-3.1689,-3.1692,-3.1694,-3.1803,0,-3.1309,-3.1403,-3.1396,-3.1485,-3.1528,-3.1501,-3.1548,-3.157,-3.1576,-3.1613,-3.1619,-3.1662,-3.1625,-3.1638,-3.1677,-3.1684,-3.1743,-3.1676,-3.1732,-3.1734,-3.1726,-3.1862,-3.1884,-3.1986,-3.1817,-3.182,-3.1822,0,-3.1442,-3.1474,-3.1568,-3.159,-3.1608,-3.165,-3.1687,-3.1724,-3.1749,-3.175,-3.1776,-3.1761,-3.1817,-3.1768,-3.1845,-3.18,-3.1822,-3.183,-3.1833,-3.1838,-3.1783,-3.1871,-3.2019,-3.2034,-3.1844,-3.1842,-3.184,0,-3.1532,-3.1599,-3.1664,-3.1679,-3.1707,-3.1738,-3.1751,-3.1773,-3.1799,-3.1831,-3.1848,-3.1886,-3.1908,-3.1939,-3.1935,-3.19,-3.2014,-3.1965,-3.2017,-3.2018,-3.2042,-3.2041,-3.2196,-3.2057,-3.2057,-3.2056,-3.2056,0,-3.1648,-3.1706,-3.1705,-3.1745,-3.181,-3.1801,-3.1866,-3.1876,-3.1897,-3.1939,-3.1918,-3.1958,-3.1951,-3.1992,-3.199,-3.2055,-3.2064,-3.2067,-3.2066,-3.2069,-3.2069,-3.2083,-3.2076,-3.2061,-3.206,-3.2059,-3.2058,0,-3.1759,-3.1761,-3.183,-3.1851,-3.1858,-3.1905,-3.1923,-3.1961,-3.1966,-3.2019,-3.2031,-3.2038,-3.2084,-3.2085,-3.2138,-3.2136,-3.2216,-3.2207,-3.2207,-3.2206,-3.2258,-3.2254,-3.2428,-3.2451,-3.2297,-3.2299,-3.23,0,-3.1833,-3.1877,-3.1904,-3.193,-3.1946,-3.1989,-3.2015,-3.2009,-3.2037,-3.207,-3.2105,-3.215,-3.2185,-3.2261,-3.2271,-3.2312,-3.2303,-3.2362,-3.2309,-3.2312,-3.2305,-3.2302,-3.2307,-3.2372,-3.2374,-3.2375,-3.2376,0,-3.1964,-3.1963,-3.2001,-3.204,-3.2072,-3.2102,-3.213,-3.2153,-3.2151,-3.2184,-3.2231,-3.2259,-3.2314,-3.2359,-3.2399,-3.2413,-3.2395,-3.2393,-3.2408,-3.2411,-3.241,-3.2412,-3.2236,-3.2389,-3.2388,-3.2387,-3.2386,-3.2386,-3.2059,-3.2098,-3.2123,-3.2166,-3.2187,-3.2214,-3.2252,-3.2261,-3.2301,-3.2345,-3.2339,-3.2393,-3.2419,-3.2471,-3.2489,-3.2531,-3.251,-3.2531,-3.2536,-3.2542,-3.2548,-3.2404,-3.2538,-3.2538,-3.2537,-3.2537,-3.2537,0,-3.2189,-3.2204,-3.2244,-3.2285,-3.232,-3.23,-3.2331,-3.2361,-3.2408,-3.2434,-3.247,-3.2526,-3.257,-3.2584,-3.2627,-3.2659,-3.2652,-3.267,-3.2668,-3.2672,-3.2563,-3.2547,-3.2675,-3.2675,-3.2675,-3.2675,-3.2675,-3.2675,-3.2261,-3.2326,-3.2328,-3.2404,-3.2418,-3.2471,-3.249,-3.2516,-3.2536,-3.26,-3.2636,-3.2645,-3.2667,-3.2712,-3.2752,-3.2755,-3.2772,-3.2795,-3.2794,-3.2693,-3.2679,-3.2666,-3.265,-3.2798,-3.2798,-3.2899,-3.29,-3.2901]},{"header":{"parameterUnit":"m.s-1","parameterCategory":1,"la1":30.2991,"la2":30.254,"lo1":-89.0895,"lo2":-89.0444,"dy":0.0017,"dx":0.0017,"nx":28,"ny":28,"refTime":"2025-09-01T03:00:00:Z","depth":0,"parameterNumber":3,"parameterNumberName":"V-component_of_WINDS"},"data":[0,0,0,0,0,0,0,0,0,0,0,0,0,0,0,0,0,0,0,0,0,0,0,0,0,0,0,0,0,0,0,0,0,0,0,0,0,0,0,0,0,0,0,0,0,0,0,0,0,0,0,0,0,0,0,0,0,0,-0.2766,-0.2766,0,-0.2753,-0.2753,-0.2752,-0.2725,-0.2724,-0.2724,-0.2723,-0.2713,-0.2713,-0.2713,0,0,0,0,0,0,0,0,0,0,0,0,0,-0.2771,-0.2771,-0.2766,-0.2766,-0.2766,-0.2753,-0.2753,-0.2752,-0.2725,-0.2724,-0.2724,-0.2723,-0.2713,-0.2713,-0.2713,0,0,0,0,0,0,0,0,0,0,0,0,0,-0.2764,-0.2771,-0.2766,-0.275,-0.2749,-0.2753,-0.2753,-0.2752,-0.2725,-0.2724,-0.2723,-0.2723,-0.2712,-0.2713,-0.2713,-0.2732,0,0,-0.2714,-0.2714,0,0,0,0,0,0,0,0,-0.2765,-0.2764,-0.2753,-0.2752,-0.275,-0.2739,-0.275,-0.2746,-0.2725,-0.2734,-0.2723,-0.2722,-0.2722,-0.2722,-0.2721,-0.2732,-0.2731,-0.2714,-0.2715,-0.2715,-0.2715,0,0,0,0,0,0,0,-0.2765,-0.2765,-0.2761,-0.2753,-0.2751,-0.2745,-0.2743,-0.2749,-0.2733,-0.2733,-0.2731,-0.273,-0.2721,-0.2721,-0.2721,-0.2731,-0.2714,-0.2715,-0.2715,-0.2715,-0.2756,-0.2757,0,0,0,0,0,0,-0.2767,-0.2765,-0.2761,-0.2761,-0.2755,-0.2746,-0.2743,-0.2744,-0.2733,-0.2731,-0.2731,-0.2729,-0.2721,-0.2721,-0.272,-0.2742,-0.2715,-0.2715,-0.2715,-0.2755,-0.2757,-0.2757,0,0,0,0,0,0,-0.2768,-0.2767,-0.2762,-0.2762,-0.2761,-0.2746,-0.2747,-0.2744,-0.2743,-0.2731,-0.2728,-0.2733,-0.272,-0.272,-0.2729,-0.2741,-0.2715,-0.2716,-0.2754,-0.2756,-0.2757,-0.2785,0,0,0,0,0,0,-0.2768,-0.2768,-0.2774,-0.2763,-0.2761,-0.277,-0.2748,-0.2744,-0.2744,-0.2741,-0.2733,-0.273,-0.272,-0.2729,-0.273,-0.2741,-0.2716,-0.2753,-0.2755,-0.2757,-0.2783,-0.2787,-0.2791,0,0,0,0,0,-0.2768,-0.2784,-0.2775,-0.2774,-0.2769,-0.2771,-0.277,-0.2757,-0.2745,-0.2752,-0.2744,-0.2731,-0.274,-0.273,-0.2731,-0.2743,-0.2753,-0.2755,-0.2756,-0.2781,-0.2787,-0.2791,0,0,0,0,0,0,-0.2798,-0.2782,-0.2772,-0.2784,-0.2779,-0.2766,-0.2775,-0.2762,-0.2762,-0.2759,-0.2743,-0.2742,-0.2753,-0.2749,-0.2738,-0.276,-0.2744,-0.2746,-0.2763,-0.2768,-0.2771,-0.2772,-0.2716,0,0,0,0,0,-0.2806,-0.2808,-0.2794,-0.2806,-0.2804,-0.279,-0.279,-0.278,-0.2775,-0.2773,-0.2765,-0.2762,-0.2763,-0.2765,-0.2766,-0.2782,-0.278,-0.2791,-0.2795,-0.2798,-0.28,-0.2808,-0.2813,-0.2764,-0.2764,-0.2764,0,0,-0.2823,-0.2814,-0.2817,-0.2812,-0.2807,-0.281,-0.2788,-0.2793,-0.2795,-0.2774,-0.2782,-0.2776,-0.2771,-0.2784,-0.2789,-0.278,-0.2813,-0.28,-0.2803,-0.2804,-0.2811,-0.2815,-0.2819,-0.2765,-0.2765,-0.2765,0,0,-0.2855,-0.2848,-0.2857,-0.2852,-0.2844,-0.2835,-0.2837,-0.2826,-0.2821,-0.2828,-0.2812,-0.2815,-0.2819,-0.2816,-0.2815,-0.2844,-0.2833,-0.2845,-0.2866,-0.2874,-0.2878,-0.2881,-0.2892,-0.2896,-0.2848,-0.2848,-0.2848,0,-0.2877,-0.288,-0.2864,-0.2869,-0.2867,-0.2846,-0.2856,-0.2852,-0.2846,-0.2846,-0.2836,-0.2839,-0.2834,-0.2846,-0.2853,-0.2853,-0.2855,-0.2846,-0.2878,-0.2881,-0.2884,-0.2894,-0.2898,-0.2849,-0.2849,-0.2849,-0.2849,0,-0.2908,-0.291,-0.2919,-0.2911,-0.2911,-0.2918,-0.2903,-0.2905,-0.2894,-0.2886,-0.2894,-0.2887,-0.2886,-0.2888,-0.2878,-0.2898,-0.2893,-0.2881,-0.2864,-0.2891,-0.29,-0.2903,-0.2852,-0.2851,-0.285,-0.285,0,0,-0.2959,-0.2942,-0.2945,-0.2941,-0.2931,-0.2933,-0.2939,-0.2937,-0.2939,-0.2935,-0.294,-0.2943,-0.2932,-0.2931,-0.292,-0.2927,-0.2951,-0.2914,-0.2914,-0.2922,-0.2972,-0.2982,-0.2986,-0.2943,-0.2944,-0.2944,-0.2973,0,-0.2989,-0.2998,-0.2983,-0.2996,-0.2998,-0.2978,-0.2983,-0.2978,-0.297,-0.2971,-0.2963,-0.2965,-0.295,-0.2949,-0.2955,-0.2947,-0.2961,-0.2945,-0.2949,-0.2949,-0.2951,-0.2991,-0.3001,-0.3028,-0.2976,-0.2977,-0.2977,0,-0.3025,-0.3022,-0.3034,-0.3022,-0.3023,-0.3028,-0.3024,-0.3026,-0.3019,-0.3013,-0.3011,-0.2998,-0.3004,-0.2988,-0.2996,-0.2985,-0.2986,-0.2982,-0.2983,-0.2983,-0.2965,-0.2993,-0.3037,-0.3041,-0.2983,-0.2982,-0.2982,0,-0.3062,-0.306,-0.3067,-0.3064,-0.3051,-0.3055,-0.3049,-0.3042,-0.3041,-0.3039,-0.3038,-0.3037,-0.3036,-0.3036,-0.3023,-0.3012,-0.3033,-0.3016,-0.3029,-0.3029,-0.3035,-0.3034,-0.308,-0.3035,-0.3035,-0.3034,-0.3034,0,-0.3097,-0.3105,-0.3083,-0.3088,-0.3097,-0.3079,-0.3089,-0.3082,-0.3075,-0.3078,-0.3061,-0.3065,-0.3048,-0.305,-0.304,-0.3049,-0.3049,-0.3044,-0.3042,-0.3046,-0.3047,-0.3047,-0.3044,-0.3036,-0.3035,-0.3035,-0.3035,0,-0.3139,-0.3124,-0.3131,-0.3117,-0.3113,-0.3121,-0.3109,-0.3113,-0.3103,-0.3108,-0.3108,-0.3093,-0.3095,-0.3082,-0.3081,-0.3075,-0.3088,-0.3082,-0.309,-0.3088,-0.3102,-0.3101,-0.3149,-0.3155,-0.3106,-0.3106,-0.3107,0,-0.3162,-0.3168,-0.3154,-0.3154,-0.3149,-0.315,-0.3149,-0.3133,-0.3132,-0.3125,-0.313,-0.313,-0.3128,-0.3132,-0.3122,-0.3121,-0.3115,-0.3132,-0.3115,-0.3119,-0.3116,-0.3116,-0.3116,-0.3136,-0.3137,-0.3137,-0.3137,0,-0.3206,-0.3198,-0.3196,-0.3192,-0.3191,-0.3187,-0.3183,-0.3184,-0.3166,-0.3167,-0.3167,-0.3166,-0.3165,-0.3165,-0.3162,-0.3157,-0.3145,-0.3143,-0.3146,-0.315,-0.3155,-0.3153,-0.31,-0.3142,-0.3141,-0.3141,-0.3141,-0.3141,-0.3239,-0.3243,-0.3234,-0.3233,-0.3227,-0.3223,-0.3225,-0.3216,-0.3215,-0.3212,-0.3202,-0.3205,-0.3198,-0.3192,-0.3189,-0.3191,-0.3183,-0.3187,-0.3188,-0.319,-0.3192,-0.3154,-0.319,-0.319,-0.319,-0.319,-0.319,0,-0.3281,-0.3274,-0.3273,-0.3266,-0.3265,-0.3252,-0.3246,-0.3246,-0.3248,-0.3242,-0.3241,-0.3241,-0.3241,-0.3231,-0.3229,-0.3233,-0.3227,-0.3233,-0.3233,-0.3232,-0.32,-0.3197,-0.3238,-0.3238,-0.3238,-0.3238,-0.3238,-0.3238,-0.3303,-0.3309,-0.33,-0.3304,-0.3296,-0.3297,-0.3295,-0.3291,-0.3286,-0.3287,-0.3286,-0.3279,-0.3271,-0.3269,-0.3268,-0.3265,-0.3266,-0.3274,-0.3269,-0.3239,-0.3235,-0.323,-0.3228,-0.3274,-0.3274,-0.3302,-0.3302,-0.3302]}]]